Regional Weather Roundup
Issued by NWS Upton, NY

Current Version | Previous Version | Text Only | Print | Product List | Glossary Off
Versions: 1 2 3 4 5 6 7 8 9 10 11 12 13 14 15 16 17 18 19 20 21 22 23 24 25 26 27 28 29 30 31 32 33 34 35 36 37 38 39 40 41 42 43 44 45 46 47 48 49 50
877 ASUS41 KOKX 300604 RWROKX REGIONAL WEATHER ROUNDUP NATIONAL WEATHER SERVICE NEW YORK NY 200 AM EDT SAT APR 30 2016 NOTE: "FAIR" INDICATES FEW OR NO CLOUDS BELOW 12,000 FEET WITH NO SIGNIFICANT WEATHER AND/OR OBSTRUCTIONS TO VISIBILITY. NYZ071-072-176-178-NJZ106-104-300700- NEW YORK CITY METRO AREA CITY SKY/WX TMP DP RH WIND PRES REMARKS CENTRAL PARK CLOUDY 48 39 71 VRB5 30.19S LAGUARDIA APRT CLOUDY 49 39 68 N6 30.16S KENNEDY INTL CLOUDY 48 36 63 NE9 30.18R NEWARK/LIBERTY CLOUDY 47 42 83 N8 30.16S BRNX BOT. GARD N/A 45 41 87 N2 30.17F TETERBORO CLOUDY 47 42 83 N6 30.16F $$ NYZ177-179-078>081-300700- LONG ISLAND NEW YORK CITY SKY/WX TMP DP RH WIND PRES REMARKS FARMINGDALE CLOUDY 46 38 73 NE6 30.17R ISLIP CLOUDY 45 38 76 N3 30.17R SHIRLEY CLOUDY 44 38 79 VRB3 30.18R RIVERHEAD N/A 43 41 93 CALM 30.17R WESTHAMPTON LGT RAIN 42 39 89 N3 30.19R EAST HAMPTON DRIZZLE 41 37 86 E3 30.16S MONTAUK POINT N/A 42 39 89 CALM 30.18S $$ NYZ052-065-067-300700- HUDSON VALLEY CITY SKY/WX TMP DP RH WIND PRES REMARKS WHITE PLAINS CLOUDY 44 40 85 N5 30.16S NEWBURGH MOCLDY 43 43 100 CALM 30.18R FOG MONTGOMERY CLOUDY 44 40 85 CALM 30.17S POUGHKEEPSIE CLOUDY 46 42 86 CALM 30.18R ALBANY CLOUDY 48 39 71 SE7 30.15R $$ NJZ001-105-106-008-010-013-015-019>022-104-300700- NEW JERSEY CITY SKY/WX TMP DP RH WIND PRES REMARKS NEWARK/LIBERTY CLOUDY 47 42 83 N8 30.16S TETERBORO CLOUDY 47 42 83 N6 30.16F CALDWELL CLOUDY 46 42 86 NE3 30.17F MORRISTOWN CLOUDY 46 43 87 CALM 30.17S SOMERVILLE CLOUDY 46 41 82 N5 30.14F SUSSEX LGT RAIN 44 41 89 CALM 30.17F ANDOVER N/A 43 41 93 CALM 30.16F TRENTON CLOUDY 46 39 76 CALM 30.15F MILLVILLE CLOUDY 47 44 90 N12 30.13S ATLANTIC CITY CLOUDY 47 45 93 N7 30.14R FOG WRIGHTSTOWN NOT AVBL TOMS RIVER CLOUDY 46 43 87 CALM 30.15F BELMAR CLOUDY 47 41 80 NE7 30.16S $$ PAZ047>061-062-071-300700- EASTERN PENNSYLVANIA CITY SKY/WX TMP DP RH WIND PRES REMARKS PHILADELPHIA CLOUDY 47 41 80 NE9 30.16F ALLENTOWN CLOUDY 45 38 76 CALM 30.15F SCRANTON CLOUDY 43 37 79 E3 30.14F $$ CTZ002-004>006-009-010-012-RIZ004-006-007-MAZ004-011-015-300700- SOUTHERN NEW ENGLAND IN CT CITY SKY/WX TMP DP RH WIND PRES REMARKS BRADLEY INTL CLOUDY 46 36 68 SW7 30.16S HARTFORD CLOUDY 47 37 68 W7 30.18R DANBURY CLOUDY 44 40 85 CALM 30.19R WTRBRY/OXFORD N/A 41 37 87 CALM 30.20R BRIDGEPORT CLOUDY 45 40 82 N6 30.19R MERIDEN LGT RAIN 44 39 82 W3 30.19R NEW HAVEN CLOUDY 45 41 86 CALM 30.19R CHESTER CLOUDY 43 37 81 SW5 30.17R GROTON CLOUDY 46 41 82 SE3 30.16R WILLIMANTIC CLOUDY 47 34 60 CALM 30.16S IN RI CITY SKY/WX TMP DP RH WIND PRES REMARKS PROVIDENCE MOCLDY 45 32 60 CALM 30.18S BLOCK ISLAND CLOUDY 45 35 68 E5 30.16F WESTERLY CLOUDY 46 34 62 CALM 30.16F IN MA CITY SKY/WX TMP DP RH WIND PRES REMARKS BOSTON CLOUDY 44 31 60 S7 30.18S WORCESTER CLOUDY 42 31 64 SW7 30.14F WESTFIELD CLOUDY 47 30 51 S8 30.15S PROVINCETOWN CLOUDY 38 34 85 CALM 30.20R NANTUCKET CLOUDY 44 34 67 E5 30.17R $$ ANZ330-335-338-340-345-350-353-355-300700- COASTAL MARINE OBSERVATIONS STATION/POSITION TIME SKY/WX TEMP WIND PRES VSBY WAVE AIR SEA DIR/SP/G HT/PER (UTC) (F) (DEG/KT/KT) (MB) (MI) (FT/S) NY HARB ENTRANCE 0450 48 51 60/ 16/ 17 1020.3 6/ 8 20S FIRE ISLAND 0450 47 48 60/ 14/ 16 1020.3 6/ 7 GREAT SOUTH BAY 0500 47 57 70/ 8/ 12 N/A 23 SSW MONTAUK P 0550 44 47 80/ 14/ 16 1020.1 5/ 7 15 E BARNEGAT LI 0522 50 N/A 6/ 8 HUDSON CANYON 0450 47 48 1018.5 7/ 8 KINGS POINT 0500 47 53 1021.2 EXECUTION ROCKS NOT AVBL CENTRAL LI SOUND 0515 44 110/ 6/ 8 N/A 1/ 6 EASTERN LI SOUND 0500 47 48 110/ 8/ 10 N/A ROBBINS REEF 0500 49 10/ 6/ 8 1020.6 $$ >>>>>>>>>>>>>>>>>>>>>>>>>>>> KEY <<<<<<<<<<<<<<<<<<<<<<<<<<< > < > SKY/WX - SKY CONDITION/PRESENT WEATHER < > TMP - TEMPERATURE IN FAHRENHEIT < > DP - DEWPOINT IN FAHRENHEIT < > RH - RELATIVE HUMIDITY IN PERCENT < > WIND - DIRECTION AND SPEED IN MPH < > PRES - MEAN SEA LEVEL PRESSURE IN INCHES OF HG < > WCI - WIND CHILL INDEX < > VSB - VISIBILITY IN MILES < > HX - HEAT INDEX < > TC - TEMPERATURE IN CELSIUS < > VRB - VARIABLE WIND DIRECTION < > < >>>>>>>>>>>>>>>>>>>>>>>>>>>> KEY <<<<<<<<<<<<<<<<<<<<<<<<<<<

USA.gov is the U.S. government's official web portal to all federal, state and local government web resources and services.